Regional Weather Roundup
Issued by NWS

Home | Current Version | Previous Version | Graphics & Text | Print | Product List | Glossary On
Versions: 1 2 3 4 5 6 7 8 9 10 11 12 13 14 15 16 17 18 19 20 21 22 23 24 25 26 27 28 29 30 31 32 33 34 35 36 37 38 39 40 41 42 43 44 45 46 47 48 49 50
000
ASUS43 KLOT 191508
RWRIL

ILLINOIS REGIONAL WEATHER ROUNDUP
NATIONAL WEATHER SERVICE CHICAGO/ROMEOVILLE IL
1000 AM CDT THU APR 19 2018

NOTE: "FAIR" INDICATES FEW OR NO CLOUDS BELOW 12,000 FEET WITH NO
SIGNIFICANT WEATHER AND/OR OBSTRUCTIONS TO VISIBILITY.

* THESE STATIONS ARE NOT UNDER NWS QUALITY CONTROL. THEY ALSO MAY NOT
  REPORT WEATHER SUCH AS PRECIPITATION OR FOG.

ILZ001-002-007-009-015-016-024-191600-
NORTHWEST ILLINOIS

CITY           SKY/WX    TMP DP  RH WIND       PRES   REMARKS
MOLINE         FAIR      42  29  59 N8        30.38R
STERLING*      FAIR      39  29  67 N12       30.37R WCI  32
SAVANNA*       FAIR      40  29  64 N12       30.38R
$$

ILZ003-004-008-010-011-017-018-191600-
NORTH CENTRAL ILLINOIS

CITY           SKY/WX    TMP DP  RH WIND       PRES   REMARKS
ROCKFORD       FAIR      38  26  62 N10       30.36R WCI  31
FREEPORT*      FAIR      34  26  71 N8        30.38R WCI  27
ROCHELLE*      FAIR      34  28  76 N10       30.35R WCI  26
DE KALB*       FAIR      34  27  76 N12       30.34R WCI  26
PERU*          FAIR      41  32  69 N13       30.35R
$$

ILZ005-006-012>014-019>023-191600-
NORTHEAST ILLINOIS

CITY           SKY/WX    TMP DP  RH WIND       PRES   REMARKS
CHICAGO-OHARE  FAIR      41  29  62 N13       30.30R
CHICAGO-MIDWAY FAIR      43  31  62 N12       30.30R
AURORA         FAIR      36  29  75 N10       30.32R WCI  28
LANSING*       FAIR      40  33  74 N12G21    30.30R
JOLIET*        FAIR      40  31  69 NW9       30.32R
WAUKEGAN       FAIR      39  27  62 N10       30.30R WCI  32
DUPAGE AIRPORT FAIR      39  31  72 N14       30.31R WCI  31
KANKAKEE*      FAIR      41  32  71 N13       30.31R
WHEELING       FAIR      42  29  59 N8        30.32R
MORRIS*        FAIR      37  31  78 NW9       30.32R WCI  30
ROMEOVILLE*    FAIR      40  31  71 N9        30.32R
NORTHERLY ISL    N/A     39  30  70 NW14        N/A  WCI  31
$$

LMZ740>746-191600-
SOUTHERN LAKE MICHIGAN

STATION/POSITION SKY/WX   TEMP    WIND        PRES    VSBY  WAVE
                          AIR SEA DIR/SP/G                  HT/PER
                          (F)     (DEG/KT/KT) (MB)    (MI)  (FT/S)
HARRISON CRIB              37     340/ 20/ 22   N/A
BURNHAM HARBOR             40     340/ 11/ 20   N/A
CALUMET HARBOR             38     330/ 12/ 21 1025.5R
BURNS HARBOR               38     350/ 15/ 20 1025.7R
MICHIGAN CITY              38     340/ 21/ 23   N/A
$$

ILZ025>027-034>036-040-047-049-050-058-095>099-191600-
WEST-CENTRAL ILLINOIS

CITY           SKY/WX    TMP DP  RH WIND       PRES   REMARKS
QUINCY         MOSUNNY   44  31  60 NE12      30.37R
GALESBURG*     FAIR      46  33  61 N9        30.37R
MACOMB*        SUNNY     42  31  63 N9        30.39R
JACKSONVILLE*  MOSUNNY   40  31  71 N7        30.37R
PITTSFIELD*    CLOUDY    40  32  71 N7        30.38R
$$

ILZ028>032-037-038-041>044-048-051>054-059>061-191600-
CENTRAL ILLINOIS

CITY           SKY/WX    TMP DP  RH WIND       PRES   REMARKS
PONTIAC        FAIR      42  35  78 NW10      30.33R
BLOOMINGTON    FAIR      41  32  70 N12       30.33R
DECATUR        PTSUNNY   40  31  70 N13G23    30.33R
PEORIA         FAIR      43  30  60 N7        30.35R
LACON*         FAIR      40  30  65 N9        30.35R
LINCOLN*       PTSUNNY   43  34  70 N7        30.34R
SPRINGFIELD    PTSUNNY   44  33  65 N10       30.35R
TAYLORVILLE    CLOUDY    41  32  70 NE13      30.34R
$$

ILZ033-039-045-046-055>057-062-063-191600-
EAST-CENTRAL ILLINOIS

CITY           SKY/WX    TMP DP  RH WIND       PRES   REMARKS
CHAMPAIGN      PTSUNNY   41  32  70 NW15      30.30R
DANVILLE*      PTSUNNY   42  33  72 N7        30.26R
RANTOUL*       PTSUNNY   43  34  70 N9        30.30R
MATTOON        CLOUDY    40  33  76 N16       30.30R
PARIS*         CLOUDY    41  34  77 N9        30.30R
$$

ILZ079-100>102-191600-
SOUTHWEST ILLINOIS

CITY           SKY/WX    TMP DP  RH WIND       PRES   REMARKS
ALTON          CLOUDY    39  32  75 N9G16     30.36R WCI  33
BELLEVILLE     CLOUDY    40  30  66 N10G18    30.35R
CAHOKIA*       CLOUDY    42  30  62 N14       30.36R
SPARTA*        CLOUDY    40  32  72 N13G18    30.36R
$$

ILZ064>066-069>071-074>076-080>082-084>086-088>090-092>094-191600-
SOUTH-CENTRAL ILLINOIS

CITY           SKY/WX    TMP DP  RH WIND       PRES   REMARKS
CARBONDALE     CLOUDY    41  28  60 NW15G25   30.34R
CAIRO*         CLOUDY    43  27  53 N14G23    30.33R
EFFINGHAM*     PTSUNNY   42  33  71 N15       30.33R
MARION         CLOUDY    39  27  60 N9G17     30.33R WCI  33
MT. VERNON     CLOUDY    40  30  67 VRB6      30.33R
CENTRALIA*     CLOUDY    40  33  75 N15       30.33R
SALEM*         CLOUDY    40  32  74 N12G18    30.33R
METROPOLIS*    CLOUDY    41  26  54 N12G17    30.33R
$$

ILZ067-068-072-073-078-083-087-091-191600-
SOUTHEAST ILLINOIS

CITY           SKY/WX    TMP DP  RH WIND       PRES   REMARKS
LAWRENCEVILLE  PTSUNNY   44  33  65 N20       30.28R
FLORA*         CLOUDY    40  32  73 N12       30.32R
FAIRFIELD*     CLOUDY    39  32  73 N7        30.31R WCI  34
HARRISBURG*    CLOUDY    41  30  65 N13       30.33R
ROBINSON*      CLOUDY    39  33  78 N15       30.29R WCI  31
CARMI*         CLOUDY    40  31  69 N16       30.30R
$$

ABBREVIATIONS USED IN REMARKS
   TC - TEMPERATURE IN CELSIUS
  WCI - WIND CHILL INDEX
   HX - HEAT INDEX
  VSB - VISIBILITY
$$





USA.gov is the U.S. government's official web portal to all federal, state and local government web resources and services.